This is the latest recevied weather packets stored in our database for station/object K9YK-13. If no packets are shown the sender has not sent any weather packets the latest 10 day(s).
| Time | Temp. | Humidity | Pressure | Rain* | Wind** | Luminosity | Snow |
|---|---|---|---|---|---|---|---|
| 1778115969 | 11.67° C | 59% | 0 hPa | 0 mm | - | - | - |
| 1778115669 | 11.67° C | 59% | 0 hPa | 0 mm | - | - | - |
| 1778115369 | 11.67° C | 57% | 0 hPa | 0 mm | - | - | - |
| 1778115069 | 12.78° C | 58% | 0 hPa | 0 mm | - | - | - |
| 1778114769 | 12.78° C | 58% | 0 hPa | 0 mm | - | - | - |
| 1778114469 | 12.22° C | 57% | 0 hPa | 0 mm | - | - | - |
| 1778114169 | 12.22° C | 59% | 0 hPa | 0 mm | - | - | - |
| 1778113869 | 13.33° C | 57% | 0 hPa | 0 mm | - | - | - |
| 1778113569 | 12.78° C | 56% | 0 hPa | 0 mm | - | - | - |
| 1778113269 | 13.33° C | 55% | 0 hPa | 0 mm | - | - | - |
| 1778112969 | 13.33° C | 55% | 0 hPa | 0 mm | - | - | - |
| 1778112669 | 13.33° C | 57% | 0 hPa | 0 mm | - | - | - |
| 1778112369 | 13.33° C | 56% | 0 hPa | 0 mm | - | - | - |
| 1778112069 | 13.33° C | 54% | 0 hPa | 0 mm | - | - | - |
| 1778111769 | 12.78° C | 53% | 0 hPa | 0 mm | - | - | - |
| 1778111469 | 12.78° C | 52% | 0 hPa | 0 mm | - | - | - |
| 1778111169 | 13.33° C | 49% | 0 hPa | 0 mm | - | - | - |
| 1778110869 | 13.89° C | 48% | 0 hPa | 0 mm | - | - | - |
| 1778110569 | 14.44° C | 50% | 0 hPa | 0 mm | - | - | - |
| 1778110269 | 15° C | 48% | 0 hPa | 0 mm | - | - | - |
| 1778109969 | 15° C | 49% | 0 hPa | 0 mm | - | - | - |
| 1778109669 | 14.44° C | 49% | 0 hPa | 0 mm | - | - | - |
| 1778109369 | 15° C | 49% | 0 hPa | 0 mm | - | - | - |
| 1778109069 | 14.44° C | 52% | 0 hPa | 0 mm | - | - | - |
| 1778108769 | 15° C | 52% | 0 hPa | 0 mm | - | - | - |
* Rain latest hour (hover to see other rain measurements)
** Current wind speed in m/s (hover to see current wind gust speed)